Location: Minneapolis
(44.9800°N, 93.2640°W)
Time: 13:20:08
(UTC-05:00)

Iridium 96 - Visible Passes

Search period start: 23 September 2014 00:00
Search period end: 03 October 2014 00:00
Orbit: 774 x 781 km, 86.4° (Epoch: 23 September)

Date Brightness Start Highest point End Pass type
(mag) Time Alt. Az. Time Alt. Az. Time Alt. Az.
23 Sep 8.4 01:51:44 12° NNE 01:51:44 12° NNE 01:52:12 10° NNE visible
23 Sep 8.1 03:32:13 11° NNW 03:32:13 11° NNW 03:32:25 10° NNW visible
24 Sep 8.2 02:58:56 12° NNW 02:58:56 12° NNW 02:59:23 10° N visible
25 Sep 8.3 02:25:39 12° N 02:25:39 12° N 02:26:02 10° N visible
26 Sep 8.5 01:52:21 11° N 01:52:21 11° N 01:52:27 10° N visible
